Dewpoint
55 56 56 56 56 56 56 56 57 57 57 56 56 55 55 56 56 56 55 55 56 56 56 56 57 57 58 58 57 58 58 55 51 49 44 29 60 68 67 62 68 73 73 51 38 32 28 30 34 39 45 47 48 45 44 44 47 49 51 45 46 46 50 52 55 54 59 54 59 60 61 62 59 58 60 55 54 55 54 55 55 56 56 57 59 61 61 62
55 55 55 55 55 55 56 56 56 56 56 56 55 56 56 56 55 55 55 56 56 56 56 56 57 57 58 58 57 58 57 54 51 49 44 57 68 66 68 64 72 70 68 30 25 24 25 29 34 39 44 45 46 41 41 42 45 49 43 44 43 43 46 53 54 57 55 56 62 61 61 61 61 57 58 55 53 54 53 55 55 56 56 57 60 61 62 62
55 55 55 55 55 55 55 56 56 56 55 55 56 56 56 55 56 56 56 56 55 56 56 56 57 57 57 58 57 58 56 53 50 41 47 70 69 70 68 70 71 71 44 22 15 11 16 26 33 39 41 42 39 38 40 41 42 45 41 40 41 41 45 53 57 59 61 59 61 61 60 60 61 60 59 57 54 55 51 53 54 55 56 57 59 60 62 62
55 55 55 55 55 56 56 56 55 55 55 55 56 56 55 55 55 55 56 56 56 55 56 56 57 57 57 57 58 57 55 51 42 45 56 70 71 69 70 73 69 62 35 26 19 15 14 23 30 36 40 38 37 36 34 40 41 51 43 39 42 46 43 53 60 61 61 62 61 62 62 61 60 60 59 57 55 52 51 52 53 53 55 58 59 60 61 61
56 56 55 56 56 55 55 55 55 55 55 55 55 55 55 55 55 56 56 56 56 56 56 56 57 57 57 58 58 56 54 44 38 48 62 68 71 69 72 72 69 36 29 24 22 22 21 26 28 31 37 37 36 33 31 31 37 35 39 37 43 48 45 57 59 62 62 62 61 63 60 62 64 60 59 57 60 55 57 57 53 55 56 57 58 60 60 61
57 57 56 56 56 56 55 55 56 55 55 55 55 55 55 56 56 56 56 56 56 56 56 56 57 57 57 58 57 56 51 27 40 53 72 69 71 70 70 71 65 37 29 23 17 16 21 25 29 32 35 35 34 31 26 24 37 34 36 41 45 47 46 52 59 64 63 62 60 60 64 63 61 60 60 59 59 61 58 56 54 55 56 58 59 60 60 60
57 57 57 56 56 56 56 56 55 55 55 55 55 55 55 56 56 56 56 56 56 56 56 56 57 57 57 58 56 53 42 37 39 60 72 70 70 73 72 69 59 32 29 24 17 10 13 23 28 32 34 34 32 26 23 20 29 32 34 39 48 52 50 54 59 63 61 63 61 64 64 61 62 60 62 60 59 58 56 55 56 56 57 58 59 59 59 60
57 57 57 57 57 56 56 56 56 55 55 55 55 55 55 55 56 56 56 56 56 56 56 56 56 57 58 55 53 45 37 38 47 64 71 72 68 70 65 46 34 33 30 20 13 5 8 21 28 36 33 31 25 23 21 19 20 27 36 53 57 58 58 59 59 61 64 66 66 64 62 62 62 64 60 60 58 57 57 56 57 57 57 58 59 59 59 60
57 57 57 57 57 57 56 56 56 55 55 55 55 55 55 55 55 56 56 56 56 56 56 56 57 57 58 56 48 32 34 46 57 61 61 56 53 55 42 36 33 34 30 20 8 4 9 23 35 35 26 28 24 22 22 23 29 41 52 51 51 60 62 61 65 65 65 67 67 64 63 64 64 64 61 63 61 59 57 56 57 57 57 58 58 59 60 60
57 57 57 57 57 56 57 56 56 56 56 56 56 56 56 55 55 55 56 56 56 56 56 56 57 57 56 54 40 29 38 58 60 59 55 54 49 42 39 36 35 33 28 18 11 22 31 36 29 28 28 23 20 15 16 29 42 53 57 58 60 63 64 65 65 65 66 66 66 63 65 65 66 63 55 65 60 58 56 56 58 57 57 57 57 58 59 58
57 57 57 57 57 57 56 56 56 56 56 56 56 56 55 55 55 55 56 56 56 56 56 57 57 57 55 50 39 24 42 53 56 54 52 48 43 38 36 36 34 31 26 14 15 28 35 29 25 25 25 16 16 13 20 40 45 56 58 59 62 64 64 64 65 65 65 65 66 64 62 65 65 64 56 62 60 58 56 56 58 57 58 57 57 58 59 59
57 57 57 57 57 57 57 57 56 56 56 56 56 55 55 55 55 55 56 56 56 56 56 56 57 56 54 47 28 27 38 43 52 51 49 42 38 35 33 31 32 30 23 12 23 28 36 33 28 22 15 17 13 14 30 41 48 56 56 56 61 62 63 65 65 66 65 65 65 65 61 58 64 60 67 64 61 58 56 56 57 57 57 58 57 56 59 59
57 57 57 57 57 57 57 57 56 56 56 56 55 55 55 55 55 55 55 55 56 56 57 56 58 56 53 43 29 38 45 50 50 47 45 40 33 29 32 32 30 30 21 13 24 26 31 30 27 21 17 14 12 12 34 39 49 52 52 53 54 58 59 64 66 65 63 66 65 64 48 54 61 65 66 65 64 63 58 57 56 57 57 58 57 56 56 59
57 57 57 57 57 57 57 57 56 56 56 55 55 54 55 55 55 55 55 55 55 55 57 57 57 55 53 26 32 42 47 48 49 44 40 32 30 33 32 32 31 25 18 18 22 26 27 26 25 21 16 13 13 18 42 43 43 43 51 52 42 42 43 62 63 64 60 65 65 63 52 47 60 64 66 67 66 64 59 57 57 57 57 58 58 56 55 58
57 57 57 57 56 57 57 56 56 55 55 55 54 54 55 56 56 55 55 55 55 57 58 59 57 54 50 28 41 48 60 50 44 40 38 33 32 34 34 31 29 27 22 19 25 27 28 27 23 18 15 12 11 10 15 27 37 37 34 36 40 36 52 60 62 63 56 63 64 62 52 51 58 61 64 66 66 64 61 58 57 57 59 58 59 57 54 57
57 57 57 56 56 56 56 56 55 55 54 54 54 54 56 57 56 55 56 55 56 58 58 58 55 51 44 27 44 61 46 38 33 34 37 34 33 28 30 32 29 28 25 23 24 26 25 22 17 15 15 14 13 14 17 25 32 34 31 35 35 36 40 44 62 63 63 62 63 61 49 51 54 60 63 65 64 62 60 58 58 60 63 62 62 58 56 56
57 57 56 56 56 56 56 55 55 54 54 53 54 55 56 58 58 57 58 58 57 58 57 53 51 49 29 32 44 44 28 30 33 33 37 36 34 31 29 28 28 28 26 26 25 25 21 19 17 18 16 14 13 14 17 20 25 26 29 30 37 33 34 36 56 62 63 61 56 60 56 52 52 57 59 61 62 61 58 58 58 64 61 62 62 61 56 57
56 56 56 56 56 56 56 55 55 54 53 53 53 55 57 59 60 60 59 58 56 56 56 56 54 45 24 32 29 26 31 32 33 33 36 36 38 31 28 22 23 25 26 22 24 21 20 16 15 12 11 13 15 16 19 19 19 22 27 29 32 35 37 37 40 62 61 62 56 54 55 55 54 55 56 60 61 60 60 58 58 60 61 61 61 61 61 60
56 56 56 56 55 55 55 55 54 53 53 53 55 58 60 60 59 55 52 53 51 52 44 41 42 27 21 24 28 29 32 35 33 30 31 36 36 33 29 27 22 19 17 15 16 18 18 13 14 12 7 8 8 13 14 16 14 19 31 32 34 30 32 34 49 60 58 56 55 53 49 49 51 54 57 58 59 59 59 59 59 60 61 61 60 58 56 60
56 56 56 55 55 55 55 54 53 52 52 52 57 58 56 54 49 44 49 48 39 30 30 31 32 28 26 26 28 32 36 35 29 28 30 33 33 29 24 22 17 17 14 10 12 11 13 11 10 8 4 3 5 7 10 11 8 10 23 29 33 31 33 49 54 61 60 57 52 52 51 52 53 55 57 58 59 59 59 60 60 60 62 60 61 63 59 60
55 55 55 55 54 54 54 53 52 52 51 49 52 52 32 33 31 26 29 30 31 33 32 32 32 32 31 31 30 31 28 27 28 26 27 32 27 23 20 18 15 12 11 11 6 11 10 10 5 5 3 3 3 5 6 6 6 13 17 24 26 32 28 51 56 61 62 55 42 55 55 52 54 57 58 58 58 58 59 60 61 62 62 61 63 62 59 60
55 55 54 54 54 53 53 53 52 51 49 53 49 35 33 35 35 35 35 28 31 32 33 33 37 33 33 33 34 35 30 24 24 24 30 32 24 22 16 15 11 9 10 10 12 12 11 6 7 11 9 7 5 3 3 2 2 6 11 21 25 24 35 53 61 59 62 56 42 48 49 48 53 56 57 58 59 60 61 62 64 63 63 62 64 60 61 63
55 54 54 54 53 53 52 52 51 51 53 47 41 33 34 36 38 42 36 32 30 33 32 33 32 30 31 35 36 35 28 20 19 23 27 27 20 20 14 14 14 12 15 14 13 13 11 9 12 12 12 9 7 6 4 1 -0 -1 3 12 17 31 27 31 53 61 60 53 47 49 49 47 55 59 58 59 60 62 64 63 64 63 62 62 61 60 61 62
54 54 53 54 54 53 52 51 51 52 49 38 37 34 36 36 40 39 35 31 28 32 32 33 33 31 27 28 34 32 26 18 19 20 28 23 19 20 18 15 15 15 13 14 14 12 11 12 13 13 13 11 7 5 3 0 -3 -2 -3 5 15 17 29 33 38 53 58 59 58 53 48 46 52 51 55 58 59 62 62 63 63 64 65 64 64 61 60 58
54 53 53 53 53 53 51 51 48 36 39 39 35 35 34 38 44 39 33 34 32 29 38 35 36 33 31 35 36 33 21 20 20 22 28 24 20 19 17 19 17 13 13 15 15 13 11 13 13 12 12 11 10 5 5 0 -2 -2 -1 4 8 15 23 32 42 43 45 50 55 51 36 42 50 52 50 55 56 58 60 62 61 62 62 62 59 60 60 59
53 53 53 53 53 52 51 46 39 38 35 24 34 36 35 37 40 44 36 33 23 29 31 24 29 26 32 29 32 31 22 16 19 22 28 24 27 19 18 15 17 14 15 17 13 14 13 14 14 12 10 10 9 6 7 7 3 4 7 12 14 16 19 31 38 40 31 36 52 55 39 32 53 49 51 53 56 58 59 61 61 60 62 61 60 59 58 57
53 53 53 53 53 52 42 29 47 42 32 25 36 36 36 39 53 42 37 24 22 27 24 23 22 27 26 23 27 23 15 16 22 23 29 31 22 22 17 14 17 16 16 17 17 12 15 15 12 12 13 11 11 12 10 7 6 18 31 37 32 28 29 33 37 36 34 42 56 54 45 38 42 51 53 53 55 57 57 61 62 62 62 61 59 58 60 58
53 53 53 52 52 51 49 48 45 35 28 37 39 36 39 50 51 45 37 19 20 22 23 21 19 19 18 18 22 19 17 17 18 21 24 27 27 20 17 14 13 14 17 16 12 14 15 13 13 13 14 13 11 14 15 12 14 34 42 34 32 30 33 35 34 37 40 33 35 46 52 42 38 50 54 54 53 53 55 56 61 63 63 62 60 58 59 59
53 53 52 52 51 51 51 49 48 37 39 39 38 40 40 52 43 35 33 24 22 22 20 19 20 18 17 17 18 18 16 17 16 19 22 24 23 19 15 16 16 16 17 17 13 13 16 16 14 14 13 10 16 14 14 20 25 39 42 43 36 38 36 36 37 38 41 34 33 41 44 36 35 48 50 53 52 52 53 55 57 61 64 63 60 59 59 61
53 52 52 51 51 51 51 50 46 41 42 41 41 45 43 41 38 33 25 22 22 17 18 18 17 16 17 15 15 16 16 16 17 20 22 21 21 19 18 18 17 17 16 16 16 15 15 24 23 15 15 20 20 21 31 29 32 43 41 36 36 37 36 36 39 38 34 31 36 35 44 36 29 42 44 50 52 52 52 53 55 58 60 62 60 58 60 60
52 52 51 51 48 45 45 44 42 43 44 47 46 45 42 38 29 28 25 26 23 20 19 17 15 17 15 14 12 15 14 15 15 18 19 20 19 19 19 17 19 17 16 15 13 16 16 20 22 19 22 29 32 27 40 41 40 39 29 29 30 34 38 39 38 39 31 25 33 41 42 47 32 40 46 48 51 50 52 54 60 59 57 58 59 60 61 61
51 51 51 50 50 50 41 34 39 45 48 46 46 38 30 29 27 26 23 26 23 19 16 17 17 16 18 19 15 13 12 14 15 15 14 15 16 16 17 17 17 17 15 12 12 15 13 15 17 18 24 18 29 21 31 38 41 29 24 25 22 25 33 27 31 28 27 31 38 45 50 46 42 45 45 51 51 53 56 56 55 56 60 57 57 60 61 61
50 50 50 51 51 50 47 48 51 51 49 43 41 31 24 24 26 20 27 23 22 24 20 24 19 20 21 18 14 14 14 13 15 14 15 16 15 15 16 16 16 16 15 14 11 8 11 18 15 13 15 20 26 17 22 22 24 20 20 22 21 20 18 20 18 22 21 36 41 45 52 34 35 43 51 49 54 54 55 58 60 59 57 57 58 58 60 61
50 50 51 51 49 49 48 54 52 50 43 41 37 24 23 21 23 38 28 23 26 25 23 21 21 21 20 14 13 14 13 14 14 13 14 16 14 15 15 16 16 16 15 15 9 6 8 15 15 18 13 19 19 14 14 11 15 18 16 17 19 24 20 21 19 16 22 25 34 53 45 34 26 50 49 53 53 55 56 58 61 61 60 60 58 58 58 59
49 51 53 52 51 50 50 49 51 50 45 33 27 20 20 21 19 22 24 26 26 23 21 22 21 16 15 16 15 14 14 14 14 14 13 13 13 13 14 14 18 17 17 14 14 14 12 14 20 25 24 23 19 21 17 12 10 17 20 16 14 15 22 15 21 21 22 21 22 42 29 30 37 50 53 54 53 54 56 59 62 61 61 62 60 60 60 59
50 44 51 51 50 53 52 51 49 47 43 27 20 21 18 18 16 22 26 27 24 20 19 20 17 12 11 11 16 14 15 15 14 13 12 12 12 14 14 15 17 18 17 12 18 11 16 15 21 24 26 24 24 27 21 15 13 13 13 13 14 15 12 21 20 18 18 20 20 28 25 30 35 46 50 52 54 55 56 57 59 60 60 61 61 61 60 63
43 46 45 47 48 50 53 51 47 45 37 26 18 19 17 18 23 30 31 23 20 21 20 17 14 12 11 10 12 12 13 12 13 12 14 13 12 13 14 17 19 18 18 18 14 15 15 20 21 22 23 24 28 27 26 22 18 12 9 12 15 15 16 19 15 24 19 15 20 20 18 19 23 35 47 51 51 51 53 54 59 62 61 60 61 60 60 61
48 47 45 46 47 51 52 51 47 41 29 23 23 30 31 16 24 28 24 23 22 21 19 19 21 15 12 11 11 11 12 10 12 12 10 13 12 14 13 15 19 18 18 17 16 19 15 16 19 21 21 23 25 25 24 24 26 18 18 17 13 19 17 21 19 16 16 16 19 18 24 21 23 31 37 46 46 49 52 58 59 60 63 64 62 61 60 61
50 47 41 41 47 47 49 51 45 38 28 23 21 28 24 23 27 27 26 24 19 20 19 19 19 17 15 11 12 11 12 9 12 11 12 14 11 17 13 15 19 19 19 17 15 17 16 14 19 22 19 21 21 19 20 20 23 23 21 19 20 18 19 21 21 23 21 15 20 20 26 15 34 35 36 45 52 52 51 55 58 61 63 63 64 62 61 61
35 31 35 40 45 48 52 47 41 30 26 23 20 20 29 22 22 22 22 23 21 20 20 20 21 19 14 14 13 11 12 11 11 13 11 15 10 18 17 18 18 19 19 18 17 16 18 24 17 19 21 19 18 23 21 21 20 20 20 20 23 22 25 19 18 17 17 22 21 22 19 22 35 46 46 51 53 55 55 57 60 62 62 63 64 64 63 63
39 35 36 42 43 48 47 44 28 24 26 24 27 26 26 21 25 22 22 26 23 22 20 20 20 19 18 17 13 13 13 11 11 12 12 13 12 16 19 18 19 18 19 18 18 17 22 19 17 19 19 20 25 30 31 31 28 23 20 20 23 21 21 22 25 23 21 21 22 21 23 29 45 59 55 56 57 58 61 62 61 62 62 64 64 65 65 64
37 27 36 42 44 45 41 27 22 29 24 22 18 19 25 37 24 23 25 25 25 23 22 20 21 20 21 19 18 16 15 12 11 11 12 11 13 13 20 21 19 18 17 20 19 19 28 22 20 20 19 21 27 32 35 33 33 29 26 23 27 23 23 19 19 20 24 22 23 25 25 27 53 58 60 60 59 60 62 62 62 61 61 62 63 65 66 66
25 25 37 42 45 40 35 28 35 28 18 21 29 26 28 29 27 29 25 24 20 21 22 20 20 21 21 22 20 16 16 15 13 11 10 11 13 14 22 20 21 17 16 21 21 27 41 24 22 20 26 27 30 32 33 32 29 27 28 27 26 26 27 25 25 30 27 22 27 25 29 34 55 60 61 61 62 61 63 62 62 60 59 62 63 65 66 66
31 33 36 43 46 43 33 29 28 24 22 31 28 30 32 31 31 28 25 26 21 20 18 20 21 21 24 21 19 17 16 17 13 12 14 15 15 23 21 21 21 17 18 20 23 28 23 31 25 21 24 25 27 29 28 29 28 24 23 33 32 31 30 32 31 36 27 23 25 24 22 22 53 59 59 60 59 59 59 61 62 60 59 60 63 65 66 66
41 39 40 41 44 37 32 33 34 32 33 33 34 32 31 32 31 32 32 30 29 28 27 22 23 22 22 21 20 18 16 13 17 11 12 16 15 24 22 22 21 19 21 33 49 24 20 28 28 18 18 18 20 18 23 22 25 25 29 32 35 30 37 35 29 33 29 35 37 30 27 41 49 56 57 55 56 57 58 59 60 62 61 59 62 63 65 65
30 37 33 38 36 36 39 39 36 35 36 36 34 33 33 30 32 33 33 31 30 31 29 29 28 25 23 22 22 20 18 16 15 17 14 12 18 22 23 23 23 24 47 51 38 26 28 29 28 27 22 20 26 29 22 23 24 23 31 31 31 33 33 36 34 31 29 32 35 35 34 35 35 38 44 47 52 53 53 54 57 58 60 61 62 63 64 64
38 37 35 40 37 35 36 37 36 35 33 37 36 35 33 31 32 32 33 30 30 32 34 31 28 26 24 23 22 19 17 16 19 19 17 12 19 22 23 23 28 44 58 41 40 26 33 24 28 33 27 26 27 27 25 25 25 28 30 30 31 34 37 35 33 31 43 33 27 40 45 39 39 37 40 44 47 51 53 55 58 59 61 60 61 62 63 64
36 37 40 46 41 38 35 35 38 36 36 35 37 36 33 32 32 31 33 32 32 34 33 30 27 29 32 28 29 22 21 21 24 17 17 19 22 23 22 25 28 51 43 26 32 28 27 22 29 24 23 25 26 30 33 32 28 29 29 30 36 38 38 37 36 36 40 36 31 40 45 44 42 38 39 44 50 52 53 57 58 60 60 61 61 60 62 62
35 37 36 43 40 38 39 42 40 39 38 35 36 36 34 32 31 33 34 34 32 34 35 33 27 35 35 34 33 26 29 21 22 24 24 22 19 23 21 24 32 34 29 28 27 43 32 21 29 24 27 25 26 26 31 30 30 31 29 28 28 34 37 36 33 33 34 40 39 39 42 42 41 40 44 47 51 55 58 61 60 61 61 61 60 60 61 63
42 40 41 38 36 33 35 38 39 38 36 42 38 36 34 34 33 34 34 34 33 33 36 36 37 37 33 30 37 30 34 36 39 25 27 27 23 24 22 23 27 31 26 25 27 41 31 42 36 28 28 27 27 36 36 35 33 32 29 27 29 32 32 36 38 37 39 36 37 40 42 42 43 49 50 55 58 59 60 59 58 60 61 60 60 59 61 63
47 49 51 44 34 31 35 31 34 36 36 38 36 35 36 34 34 36 35 35 35 35 36 36 38 39 34 32 32 35 37 38 39 38 37 32 24 23 22 21 19 28 27 26 27 37 29 37 38 33 26 25 27 26 25 26 28 29 31 32 32 33 34 34 35 39 38 37 38 40 41 42 54 51 55 56 56 57 58 60 59 58 58 59 58 58 61 62
48 50 50 47 36 46 34 37 34 33 28 31 34 36 36 35 36 35 34 34 35 36 37 37 38 39 39 35 38 38 38 38 38 37 38 37 35 32 26 25 22 24 26 25 30 26 29 28 29 27 25 25 28 25 24 25 25 25 28 26 32 30 32 28 31 38 39 39 38 35 36 45 49 51 48 53 52 54 57 59 59 59 59 59 59 60 62 62